This demonstration page uses our WeatherBlox Daily Observations layout. Learn more.

Left ArrowRight Arrow

34.02893, -84.19858

Hourly Observations for February 25, 2017

Temp ( °F °C ) Dew Point ( °F °C ) Humidity (%) Winds ( mph kmh ) Pressure ( in mb ) Visibility ( mi km ) Precip ( " mm )
12:53 am 00:53 Mostly Cloudy 67 19.4 53 11.7 61 61 S 10 17 29.74 1007 10 16 0.00 0.00
1:53 am 01:53 Mostly Clear 66 18.9 54 12.2 65 65 SSW 12 19 29.73 1007 10 16 0.00 0.00
2:53 am 02:53 Partly Cloudy 65 18.3 55 12.8 70 70 SW 10 17 29.73 1007 10 16 0.00 0.00
3:53 am 03:53 Clear 63 17.2 55 12.8 76 76 SW 10 17 29.72 1006 10 16 0.00 0.00
4:53 am 04:53 Mostly Clear 62 16.7 56 13.3 80 80 SW 9 15 29.70 1006 10 16 0.00 0.00
5:53 am 05:53 Mostly Cloudy 62 16.7 57 13.9 84 84 SW 9 15 29.71 1006 10 16 0.00 0.00
6:53 am 06:53 Mostly Cloudy 62 16.7 57 13.9 84 84 SW 10 17 29.72 1007 10 16 0.00 0.00
7:53 am 07:53 Cloudy 60 15.6 54 12.2 80 80 WNW 12 19 29.78 1009 10 16 0.00 0.00
8:23 am 08:23 Cloudy 58 14.4 42 5.6 56 56 WNW 14 22 29.80 1009 10 16 0.00 0.00
8:53 am 08:53 Cloudy 57 13.9 39 3.9 51 51 WNW 15 24 29.83 1010 10 16 0.00 0.00
9:53 am 09:53 Sunny 60 15.6 35 1.7 39 39 WNW 17 28 29.83 1010 10 16 0.00 0.00
10:53 am 10:53 Sunny 62 16.7 24 -4.4 23 23 NW 16 26 29.84 1011 10 16 0.00 0.00
11:53 am 11:53 Sunny 63 17.2 22 -5.6 21 21 WNW 15 24 29.85 1011 10 16 0.00 0.00
12:53 pm 12:53 Sunny 63 17.2 21 -6.1 20 20 WNW 20 31 29.85 1011 10 16 0.00 0.00
1:53 pm 13:53 Sunny 62 16.7 20 -6.7 20 20 W 18 30 29.85 1011 10 16 0.00 0.00
2:53 pm 14:53 Sunny 61 16.1 17 -8.3 18 18 WNW 24 39 29.85 1011 10 16 0.00 0.00
3:53 pm 15:53 Sunny 60 15.6 19 -7.2 20 20 NW 17 28 29.87 1012 10 16 0.00 0.00
4:53 pm 16:53 Sunny 59 15 14 -10 17 17 NW 15 24 29.89 1012 10 16 0.00 0.00
5:53 pm 17:53 Sunny 57 13.9 19 -7.2 23 23 WNW 13 20 29.91 1013 10 16 0.00 0.00
6:53 pm 18:53 Clear 54 12.2 20 -6.7 26 26 WNW 14 22 29.94 1014 10 16 0.00 0.00
7:53 pm 19:53 Clear 51 10.6 24 -4.4 35 35 WNW 14 22 29.97 1015 10 16 0.00 0.00
8:53 pm 20:53 Clear 49 9.4 23 -5 36 36 WNW 9 15 30.01 1016 10 16 0.00 0.00
9:53 pm 21:53 Clear 47 8.3 23 -5 39 39 WNW 14 22 30.03 1017 10 16 0.00 0.00
10:53 pm 22:53 Clear 46 7.8 21 -6.1 37 37 NW 12 19 30.06 1018 10 16 0.00 0.00
11:53 pm 23:53 Clear 44 6.7 19 -7.2 37 37 NW 10 17 30.06 1018 10 16 0.00 0.00

Powered by AerisWeather